| time (UTC) | temp F | wind direction | speed knots | gust knots | rain 1hr in | rain 24hr in | rain mn in | humidity % | barometer mb |
| 20260502195157 | 79 | 179 | 0.9 | 0.9 | 0.00 | 0.00 | 0.23 | 95 | 1011.0 |
| 20260502194658 | 79 | 102 | 1.7 | 1.7 | 0.00 | 0.00 | 0.23 | 95 | 1011.0 |
| 20260502194157 | 79 | 343 | 2.6 | 4.3 | 0.00 | 0.00 | 0.23 | 94 | 1011.0 |
| 20260502193657 | 80 | 46 | 2.6 | 2.6 | 0.00 | 0.00 | 0.23 | 96 | 1011.0 |
| 20260502193157 | 79 | 266 | 3.5 | 4.3 | 0.00 | 0.00 | 0.23 | 97 | 1011.0 |
| 20260502192657 | 79 | 164 | 0.0 | 0.9 | 0.00 | 0.00 | 0.23 | 97 | 1011.0 |
| 20260502192157 | 79 | 247 | 2.6 | 2.6 | 0.00 | 0.00 | 0.23 | 98 | 1011.0 |
| 20260502191657 | 79 | 166 | 0.0 | 0.0 | 0.00 | 0.00 | 0.23 | 97 | 1010.0 |
| 20260502191157 | 79 | 160 | 0.0 | 0.0 | 0.00 | 0.00 | 0.23 | 97 | 1011.0 |
| 20260502190657 | 79 | 145 | 0.0 | 0.0 | 0.00 | 0.00 | 0.23 | 97 | 1010.0 |
| 20260502190157 | 79 | 160 | 0.0 | 0.0 | 0.00 | 0.00 | 0.23 | 97 | 1011.0 |
| 20260502185657 | 79 | 159 | 0.0 | 0.0 | 0.00 | 0.00 | 0.23 | 97 | 1011.0 |
| 20260502185157 | 79 | 160 | 0.0 | 0.0 | 0.00 | 0.00 | 0.23 | 97 | 1011.0 |
| 20260502184658 | 79 | 155 | 0.0 | 0.0 | 0.00 | 0.00 | 0.23 | 97 | 1011.0 |
| 20260502184158 | 79 | 164 | 0.0 | 0.0 | 0.00 | 0.00 | 0.23 | 97 | 1011.0 |
| 20260502183659 | 79 | 165 | 0.0 | 0.0 | 0.00 | 0.00 | 0.23 | 97 | 1011.0 |
| 20260502183157 | 79 | 163 | 0.0 | 0.0 | 0.00 | 0.00 | 0.23 | 97 | 1011.0 |
| 20260502182657 | 79 | 165 | 0.0 | 0.0 | 0.00 | 0.00 | 0.23 | 97 | 1011.0 |
| 20260502182200 | 79 | 162 | 0.0 | 0.0 | 0.00 | 0.00 | 0.23 | 97 | 1011.0 |
| 20260502181657 | 79 | 162 | 0.0 | 0.0 | 0.00 | 0.00 | 0.23 | 97 | 1011.0 |
| 20260502181157 | 79 | 162 | 0.0 | 0.0 | 0.00 | 0.00 | 0.23 | 97 | 1011.0 |
| 20260502180658 | 79 | 160 | 0.0 | 0.0 | 0.00 | 0.00 | 0.23 | 97 | 1011.0 |
| 20260502180157 | 79 | 167 | 0.0 | 0.0 | 0.00 | 0.00 | 0.23 | 97 | 1011.0 |
| 20260502170157 | 80 | 263 | 4.3 | 4.3 | 1.63 | 0.00 | 0.04 | 92 | 1012.0 |
| 20260502164157 | 81 | 161 | 0.0 | 0.0 | 0.00 | 0.00 | 0.00 | 91 | 1012.0 |
| 20260502163657 | 81 | 159 | 0.0 | 0.0 | 0.00 | 0.00 | 0.00 | 91 | 1012.0 |
| 20260502163157 | 81 | 152 | 0.0 | 0.0 | 0.00 | 0.00 | 0.00 | 92 | 1012.0 |
| 20260502162658 | 80 | 166 | 0.0 | 0.0 | 0.00 | 0.00 | 0.00 | 92 | 1012.0 |
| 20260502162157 | 80 | 168 | 0.0 | 0.0 | 0.00 | 0.00 | 0.00 | 92 | 1012.0 |
| 20260502161657 | 81 | 156 | 0.0 | 0.0 | 0.00 | 0.00 | 0.00 | 92 | 1012.0 |
| 20260502161157 | 81 | 156 | 0.0 | 0.0 | 0.00 | 0.00 | 0.00 | 92 | 1012.0 |
| 20260502160657 | 81 | 151 | 0.0 | 0.0 | 0.00 | 0.00 | 0.00 | 91 | 1012.0 |
| 20260502160157 | 81 | 158 | 0.0 | 0.0 | 0.00 | 0.00 | 0.00 | 91 | 1012.0 |
| 20260502152157 | 81 | 160 | 0.0 | 0.0 | 0.00 | 0.00 | 0.00 | 90 | 1012.0 |
| 20260502151657 | 81 | 163 | 0.0 | 0.0 | 0.00 | 0.00 | 0.00 | 90 | 1013.0 |
| 20260502151157 | 81 | 158 | 0.0 | 0.0 | 0.00 | 0.00 | 0.00 | 90 | 1013.0 |
| 20260502150700 | 81 | 132 | 1.7 | 1.7 | 0.00 | 0.00 | 0.00 | 90 | 1013.0 |
| 20260502150158 | 81 | 150 | 0.0 | 0.0 | 0.00 | 0.00 | 0.00 | 89 | 1012.0 |
| 20260502130657 | 83 | 168 | 0.0 | 0.0 | 0.00 | 0.00 | 0.00 | 85 | 1012.0 |
| 20260502130157 | 83 | 163 | 0.0 | 0.0 | 0.00 | 0.00 | 0.00 | 84 | 1012.0 |
| 20260502123657 | 84 | 172 | 0.0 | 0.0 | 0.00 | 0.00 | 0.00 | 82 | 1012.0 |
| 20260502123157 | 84 | 176 | 0.0 | 0.0 | 0.00 | 0.00 | 0.00 | 82 | 1012.0 |
| 20260502122657 | 84 | 177 | 0.0 | 0.0 | 0.00 | 0.00 | 0.00 | 82 | 1011.0 |
| 20260502122157 | 84 | 178 | 0.9 | 0.9 | 0.00 | 0.00 | 0.00 | 81 | 1011.0 |
| 20260502121658 | 84 | 171 | 0.0 | 0.0 | 0.00 | 0.00 | 0.00 | 82 | 1011.0 |
| 20260502121157 | 84 | 181 | 0.9 | 0.9 | 0.00 | 0.00 | 0.00 | 81 | 1011.0 |
| 20260502120658 | 84 | 182 | 0.9 | 0.9 | 0.00 | 0.00 | 0.00 | 81 | 1011.0 |
| 20260502120157 | 84 | 206 | 1.7 | 1.7 | 0.00 | 0.00 | 0.00 | 81 | 1010.0 |
| 20260502115657 | 84 | 183 | 0.9 | 0.9 | 0.00 | 0.00 | 0.00 | 81 | 1010.0 |
| 20260502115157 | 84 | 219 | 2.6 | 2.6 | 0.00 | 0.00 | 0.00 | 81 | 1010.0 |
| 20260502114659 | 84 | 196 | 0.9 | 1.7 | 0.00 | 0.00 | 0.00 | 81 | 1010.0 |
| 20260502114157 | 84 | 224 | 2.6 | 2.6 | 0.00 | 0.00 | 0.00 | 81 | 1010.0 |
| 20260502113705 | 84 | 199 | 2.6 | 2.6 | 0.00 | 0.00 | 0.00 | 81 | 1010.0 |
| 20260502113157 | 84 | 196 | 1.7 | 1.7 | 0.00 | 0.00 | 0.00 | 81 | 1010.0 |
| 20260502112658 | 84 | 173 | 0.9 | 1.7 | 0.00 | 0.00 | 0.00 | 81 | 1010.0 |
| 20260502112157 | 84 | 180 | 1.7 | 1.7 | 0.00 | 0.00 | 0.00 | 81 | 1010.0 |
| 20260502111657 | 84 | 204 | 3.5 | 4.3 | 0.00 | 0.00 | 0.00 | 81 | 1010.0 |
| 20260502111157 | 84 | 177 | 0.9 | 0.9 | 0.00 | 0.00 | 0.00 | 81 | 1010.0 |
| 20260502110658 | 84 | 226 | 1.7 | 1.7 | 0.00 | 0.00 | 0.00 | 81 | 1010.0 |
| 20260502110157 | 84 | 193 | 2.6 | 2.6 | 0.00 | 0.00 | 0.00 | 80 | 1010.0 |
| 20260502105657 | 85 | 188 | 0.9 | 1.7 | 0.00 | 0.00 | 0.00 | 81 | 1010.0 |
| 20260502105158 | 85 | 196 | 2.6 | 2.6 | 0.00 | 0.00 | 0.00 | 81 | 1009.0 |
| 20260502104658 | 85 | 224 | 3.5 | 4.3 | 0.00 | 0.00 | 0.00 | 80 | 1009.0 |
| 20260502104157 | 85 | 226 | 2.6 | 4.3 | 0.00 | 0.00 | 0.00 | 80 | 1009.0 |
| 20260502103657 | 85 | 210 | 1.7 | 1.7 | 0.00 | 0.00 | 0.00 | 80 | 1009.0 |
| 20260502103159 | 85 | 191 | 1.7 | 1.7 | 0.00 | 0.00 | 0.00 | 80 | 1009.0 |
| 20260502102658 | 85 | 208 | 2.6 | 2.6 | 0.00 | 0.00 | 0.00 | 80 | 1009.0 |
| 20260502102157 | 85 | 202 | 2.6 | 4.3 | 0.00 | 0.00 | 0.00 | 79 | 1009.0 |
| 20260502101657 | 85 | 225 | 4.3 | 5.2 | 0.00 | 0.00 | 0.00 | 79 | 1009.0 |
| 20260502101157 | 86 | 232 | 4.3 | 5.2 | 0.00 | 0.00 | 0.00 | 79 | 1009.0 |
| 20260502100657 | 86 | 203 | 0.0 | 0.0 | 0.00 | 0.00 | 0.00 | 79 | 1009.0 |
| 20260502100157 | 86 | 236 | 4.3 | 4.3 | 0.00 | 0.00 | 0.00 | 78 | 1009.0 |
| 20260502091157 | 86 | 190 | 5.2 | 7.0 | 0.00 | 0.00 | 0.00 | 78 | 1009.0 |
| 20260502090659 | 86 | 177 | 5.2 | 6.1 | 0.00 | 0.00 | 0.00 | 78 | 1009.0 |
| 20260502090200 | 86 | 211 | 8.7 | 9.6 | 0.00 | 0.00 | 0.00 | 78 | 1009.0 |
| 20260502071157 | 90 | 189 | 6.1 | 7.0 | 0.00 | 0.00 | 0.00 | 72 | 1009.0 |
| 20260502070658 | 91 | 195 | 6.1 | 7.0 | 0.00 | 0.00 | 0.00 | 71 | 1009.0 |
| 20260502070157 | 90 | 212 | 5.2 | 7.0 | 0.00 | 0.00 | 0.00 | 73 | 1009.0 |
| 20260502065657 | 89 | 189 | 3.5 | 5.2 | 0.00 | 0.00 | 0.00 | 75 | 1009.0 |
| 20260502065157 | 89 | 192 | 5.2 | 6.1 | 0.00 | 0.00 | 0.00 | 75 | 1009.0 |
| 20260502064657 | 90 | 255 | 7.8 | 7.8 | 0.00 | 0.00 | 0.00 | 74 | 1009.0 |
| 20260502064158 | 92 | 175 | 3.5 | 4.3 | 0.00 | 0.00 | 0.00 | 69 | 1009.0 |
| 20260502063657 | 93 | 63 | 2.6 | 5.2 | 0.00 | 0.00 | 0.00 | 60 | 1009.0 |
| 20260502063157 | 92 | 7 | 3.5 | 4.3 | 0.00 | 0.00 | 0.00 | 61 | 1009.0 |
| 20260502062657 | 93 | 304 | 1.7 | 2.6 | 0.00 | 0.00 | 0.00 | 61 | 1009.0 |
| 20260502062157 | 92 | 197 | 1.7 | 1.7 | 0.00 | 0.00 | 0.00 | 61 | 1009.0 |
| 20260502061657 | 92 | 293 | 7.8 | 8.7 | 0.00 | 0.00 | 0.00 | 61 | 1009.0 |
| 20260502061157 | 92 | 282 | 6.1 | 7.0 | 0.00 | 0.00 | 0.00 | 62 | 1009.0 |
| 20260502060658 | 92 | 40 | 5.2 | 7.0 | 0.00 | 0.00 | 0.00 | 61 | 1009.0 |
| 20260502060157 | 91 | 331 | 4.3 | 6.1 | 0.00 | 0.00 | 0.00 | 63 | 1009.0 |
| 20260502055657 | 91 | 18 | 3.5 | 5.2 | 0.00 | 0.00 | 0.00 | 63 | 1010.0 |
| 20260502055157 | 91 | 353 | 4.3 | 6.1 | 0.00 | 0.00 | 0.00 | 63 | 1010.0 |
| 20260502054658 | 91 | 125 | 5.2 | 7.0 | 0.00 | 0.00 | 0.00 | 64 | 1010.0 |
| 20260502054157 | 91 | 272 | 4.3 | 5.2 | 0.00 | 0.00 | 0.00 | 63 | 1010.0 |
| 20260502053657 | 91 | 334 | 3.5 | 5.2 | 0.00 | 0.00 | 0.00 | 63 | 1010.0 |
| 20260502053159 | 91 | 245 | 2.6 | 2.6 | 0.00 | 0.00 | 0.00 | 64 | 1010.0 |
| 20260502052657 | 91 | 309 | 7.0 | 7.8 | 0.00 | 0.00 | 0.00 | 64 | 1010.0 |
| 20260502052157 | 91 | 312 | 9.6 | 9.6 | 0.00 | 0.00 | 0.00 | 64 | 1010.0 |
| 20260502051657 | 91 | 350 | 5.2 | 6.1 | 0.00 | 0.00 | 0.00 | 64 | 1010.0 |
| 20260502051157 | 91 | 276 | 6.1 | 7.0 | 0.00 | 0.00 | 0.00 | 64 | 1010.0 |
| 20260502050657 | 91 | 333 | 4.3 | 6.1 | 0.00 | 0.00 | 0.00 | 64 | 1010.0 |
| 20260502050157 | 90 | 349 | 6.1 | 7.0 | 0.00 | 0.00 | 0.00 | 65 | 1010.0 |
| 20260502045657 | 90 | 292 | 6.1 | 7.0 | 0.00 | 0.00 | 0.00 | 64 | 1010.0 |
| 20260502045157 | 90 | 6 | 5.2 | 7.0 | 0.00 | 0.00 | 0.00 | 64 | 1010.0 |
| 20260502044657 | 90 | 332 | 3.5 | 5.2 | 0.00 | 0.00 | 0.00 | 64 | 1010.0 |
| 20260502044159 | 91 | 246 | 2.6 | 2.6 | 0.00 | 0.00 | 0.00 | 64 | 1010.0 |
| 20260502043657 | 91 | 350 | 4.3 | 6.1 | 0.00 | 0.00 | 0.00 | 64 | 1010.0 |
| 20260502043157 | 91 | 4 | 2.6 | 4.3 | 0.00 | 0.00 | 0.00 | 65 | 1010.0 |
| 20260502042658 | 91 | 307 | 7.0 | 8.7 | 0.00 | 0.00 | 0.00 | 64 | 1010.0 |
| 20260502042157 | 91 | 278 | 6.1 | 6.1 | 0.00 | 0.00 | 0.00 | 64 | 1011.0 |
| 20260502041657 | 91 | 217 | 2.6 | 2.6 | 0.00 | 0.00 | 0.00 | 63 | 1011.0 |
| 20260502041157 | 91 | 17 | 3.5 | 4.3 | 0.00 | 0.00 | 0.00 | 62 | 1011.0 |
| 20260502040657 | 92 | 236 | 5.2 | 7.0 | 0.00 | 0.00 | 0.00 | 64 | 1011.0 |
| 20260502040157 | 91 | 281 | 4.3 | 4.3 | 0.00 | 0.00 | 0.00 | 63 | 1011.0 |
| 20260502035657 | 91 | 221 | 1.7 | 1.7 | 0.00 | 0.00 | 0.00 | 66 | 1011.0 |
| 20260502035157 | 91 | 285 | 6.1 | 7.0 | 0.00 | 0.00 | 0.00 | 66 | 1011.0 |
| 20260502034659 | 91 | 271 | 5.2 | 6.1 | 0.00 | 0.00 | 0.00 | 65 | 1011.0 |
| 20260502034157 | 91 | 157 | 4.3 | 6.1 | 0.00 | 0.00 | 0.00 | 67 | 1011.0 |
| 20260502033658 | 90 | 295 | 3.5 | 4.3 | 0.00 | 0.00 | 0.00 | 68 | 1011.0 |
| 20260502033157 | 90 | 286 | 3.5 | 4.3 | 0.00 | 0.00 | 0.00 | 67 | 1011.0 |
| 20260502032657 | 90 | 172 | 1.7 | 1.7 | 0.00 | 0.00 | 0.00 | 67 | 1012.0 |
| 20260502032158 | 90 | 261 | 4.3 | 4.3 | 0.00 | 0.00 | 0.00 | 67 | 1012.0 |
| 20260502031658 | 91 | 324 | 4.3 | 5.2 | 0.00 | 0.00 | 0.00 | 67 | 1012.0 |
| 20260502031157 | 91 | 235 | 6.1 | 7.8 | 0.00 | 0.00 | 0.00 | 67 | 1012.0 |
| 20260502030657 | 90 | 236 | 1.7 | 1.7 | 0.00 | 0.00 | 0.00 | 68 | 1012.0 |
| 20260502030157 | 90 | 257 | 3.5 | 4.3 | 0.00 | 0.00 | 0.00 | 67 | 1012.0 |
| 20260502025657 | 89 | 242 | 3.5 | 5.2 | 0.00 | 0.00 | 0.00 | 68 | 1012.0 |
| 20260502025157 | 89 | 296 | 7.0 | 7.8 | 0.00 | 0.00 | 0.00 | 67 | 1012.0 |
| 20260502024658 | 89 | 203 | 1.7 | 1.7 | 0.00 | 0.00 | 0.00 | 69 | 1012.0 |
| 20260502024158 | 89 | 228 | 4.3 | 6.1 | 0.00 | 0.00 | 0.00 | 68 | 1012.0 |
| 20260502023657 | 89 | 314 | 4.3 | 5.2 | 0.00 | 0.00 | 0.00 | 69 | 1013.0 |
| 20260502023157 | 89 | 260 | 4.3 | 5.2 | 0.00 | 0.00 | 0.00 | 68 | 1012.0 |
| 20260502022658 | 89 | 336 | 4.3 | 5.2 | 0.00 | 0.00 | 0.00 | 68 | 1012.0 |
| 20260502022158 | 89 | 263 | 2.6 | 2.6 | 0.00 | 0.00 | 0.00 | 69 | 1013.0 |
| 20260502021657 | 89 | 315 | 6.1 | 7.0 | 0.00 | 0.00 | 0.00 | 69 | 1012.0 |
| 20260502021157 | 89 | 216 | 1.7 | 1.7 | 0.00 | 0.00 | 0.00 | 71 | 1012.0 |
| 20260502020657 | 89 | 169 | 0.0 | 0.0 | 0.00 | 0.00 | 0.00 | 71 | 1012.0 |
| 20260502020157 | 88 | 172 | 0.0 | 0.0 | 0.00 | 0.00 | 0.00 | 74 | 1012.0 |
| 20260502015658 | 87 | 172 | 0.0 | 0.9 | 0.00 | 0.00 | 0.00 | 74 | 1012.0 |
| 20260502015157 | 87 | 195 | 1.7 | 2.6 | 0.00 | 0.00 | 0.00 | 73 | 1012.0 |
| 20260502014658 | 87 | 177 | 0.9 | 0.9 | 0.00 | 0.00 | 0.00 | 74 | 1013.0 |
| 20260502014159 | 88 | 263 | 2.6 | 2.6 | 0.00 | 0.00 | 0.00 | 73 | 1013.0 |
| 20260502013658 | 87 | 229 | 3.5 | 4.3 | 0.00 | 0.00 | 0.00 | 74 | 1013.0 |
| 20260502013157 | 87 | 163 | 0.0 | 0.0 | 0.00 | 0.00 | 0.00 | 75 | 1012.0 |
| 20260502012657 | 86 | 172 | 0.9 | 0.9 | 0.00 | 0.00 | 0.00 | 76 | 1013.0 |
| 20260502012157 | 85 | 156 | 0.0 | 0.0 | 0.00 | 0.00 | 0.00 | 79 | 1012.0 |
| 20260502011657 | 86 | 133 | 1.7 | 1.7 | 0.00 | 0.00 | 0.00 | 78 | 1012.0 |
| 20260502011157 | 86 | 175 | 0.0 | 0.0 | 0.00 | 0.00 | 0.00 | 79 | 1012.0 |
| 20260502010657 | 85 | 165 | 0.9 | 0.9 | 0.00 | 0.00 | 0.00 | 81 | 1012.0 |
| 20260502010157 | 84 | 174 | 0.9 | 0.9 | 0.00 | 0.00 | 0.00 | 82 | 1012.0 |
| 20260502005657 | 83 | 127 | 2.6 | 2.6 | 0.00 | 0.00 | 0.00 | 83 | 1012.0 |
| 20260502005157 | 83 | 156 | 1.7 | 1.7 | 0.00 | 0.00 | 0.00 | 83 | 1012.0 |
| 20260502004657 | 83 | 146 | 0.0 | 0.9 | 0.00 | 0.00 | 0.00 | 84 | 1012.0 |
| 20260502004157 | 83 | 96 | 3.5 | 4.3 | 0.00 | 0.00 | 0.00 | 85 | 1012.0 |
| 20260502003657 | 82 | 171 | 0.0 | 0.0 | 0.00 | 0.00 | 0.00 | 87 | 1012.0 |
| 20260502003157 | 81 | 165 | 0.9 | 0.9 | 0.00 | 0.00 | 0.00 | 88 | 1012.0 |
| 20260502002657 | 81 | 166 | 0.0 | 0.0 | 0.00 | 0.00 | 0.00 | 88 | 1012.0 |
| 20260502002157 | 81 | 176 | 0.9 | 0.9 | 0.00 | 0.00 | 0.00 | 90 | 1012.0 |
| 20260502001657 | 80 | 136 | 1.7 | 1.7 | 0.00 | 0.00 | 0.00 | 91 | 1012.0 |
| 20260502001157 | 80 | 154 | 0.0 | 0.9 | 0.00 | 0.00 | 0.00 | 91 | 1012.0 |
| 20260502000657 | 80 | 129 | 0.9 | 1.7 | 0.00 | 0.00 | 0.00 | 92 | 1012.0 |
| 20260502000157 | 79 | 132 | 0.9 | 0.9 | 0.00 | 0.00 | 0.00 | 92 | 1012.0 |
| 20260501235657 | 79 | 155 | 1.7 | 1.7 | 0.00 | 0.00 | 0.00 | 93 | 1012.0 |
| 20260501235157 | 79 | 128 | 1.7 | 1.7 | 0.00 | 0.00 | 0.00 | 94 | 1012.0 |
| 20260501234657 | 78 | 162 | 0.0 | 0.9 | 0.00 | 0.00 | 0.00 | 95 | 1012.0 |
| 20260501234157 | 78 | 133 | 0.0 | 0.0 | 0.00 | 0.00 | 0.00 | 95 | 1012.0 |
| 20260501233657 | 78 | 136 | 0.9 | 1.7 | 0.00 | 0.00 | 0.00 | 95 | 1012.0 |
| 20260501233157 | 78 | 162 | 0.0 | 0.0 | 0.00 | 0.00 | 0.00 | 96 | 1011.0 |
| 20260501232658 | 78 | 169 | 0.0 | 0.0 | 0.00 | 0.00 | 0.00 | 97 | 1011.0 |
| 20260501232157 | 77 | 165 | 0.0 | 0.0 | 0.00 | 0.00 | 0.00 | 97 | 1011.0 |
| 20260501231657 | 77 | 165 | 0.0 | 0.0 | 0.00 | 0.00 | 0.00 | 97 | 1011.0 |
| 20260501231157 | 77 | 159 | 0.0 | 0.0 | 0.00 | 0.00 | 0.00 | 98 | 1011.0 |
| 20260501230657 | 77 | 160 | 0.0 | 0.0 | 0.00 | 0.00 | 0.00 | 98 | 1012.0 |
| 20260501230158 | 77 | 166 | 0.0 | 0.0 | 0.00 | 0.00 | 0.00 | 98 | 1011.0 |
| 20260501225657 | 77 | 165 | 0.0 | 0.0 | 0.00 | 0.00 | 0.00 | 98 | 1011.0 |
| 20260501225157 | 77 | 157 | 0.0 | 0.0 | 0.00 | 0.00 | 0.00 | 98 | 1011.0 |
| 20260501224657 | 77 | 160 | 0.0 | 0.0 | 0.00 | 0.00 | 0.00 | 98 | 1011.0 |
| 20260501224157 | 77 | 147 | 0.0 | 0.0 | 0.00 | 0.00 | 0.00 | 98 | 1011.0 |
| 20260501223659 | 77 | 148 | 0.0 | 0.0 | 0.00 | 0.00 | 0.00 | 98 | 1011.0 |
| 20260501223157 | 77 | 126 | 2.6 | 2.6 | 0.00 | 0.00 | 0.00 | 98 | 1011.0 |
| 20260501222657 | 77 | 132 | 1.7 | 1.7 | 0.00 | 0.00 | 0.00 | 98 | 1011.0 |
| 20260501222157 | 77 | 148 | 0.0 | 0.0 | 0.00 | 0.00 | 0.00 | 98 | 1011.0 |
| 20260501221657 | 77 | 146 | 1.7 | 1.7 | 0.00 | 0.00 | 0.00 | 98 | 1011.0 |
| 20260501221157 | 77 | 140 | 1.7 | 1.7 | 0.00 | 0.00 | 0.00 | 98 | 1011.0 |
| 20260501220657 | 77 | 157 | 0.0 | 0.0 | 0.00 | 0.00 | 0.00 | 98 | 1011.0 |
| 20260501220157 | 77 | 139 | 1.7 | 1.7 | 0.00 | 0.00 | 0.00 | 98 | 1011.0 |
| 20260501215658 | 77 | 123 | 1.7 | 1.7 | 0.00 | 0.00 | 0.00 | 98 | 1011.0 |
| 20260501215157 | 77 | 146 | 0.0 | 0.0 | 0.00 | 0.00 | 0.00 | 98 | 1010.0 |
| 20260501214657 | 77 | 161 | 0.0 | 0.0 | 0.00 | 0.00 | 0.00 | 98 | 1011.0 |
| 20260501214158 | 77 | 153 | 0.0 | 0.0 | 0.00 | 0.00 | 0.00 | 98 | 1010.0 |
| 20260501213658 | 77 | 151 | 0.0 | 0.0 | 0.00 | 0.00 | 0.00 | 98 | 1010.0 |
| 20260501213157 | 77 | 131 | 0.0 | 0.0 | 0.00 | 0.00 | 0.00 | 98 | 1011.0 |
| 20260501212657 | 77 | 156 | 0.0 | 0.0 | 0.00 | 0.00 | 0.00 | 98 | 1010.0 |
| 20260501212200 | 77 | 156 | 0.0 | 0.0 | 0.00 | 0.00 | 0.00 | 98 | 1010.0 |
| 20260501211657 | 77 | 143 | 0.0 | 0.0 | 0.00 | 0.00 | 0.00 | 98 | 1010.0 |
| 20260501211157 | 77 | 156 | 0.0 | 0.0 | 0.00 | 0.00 | 0.00 | 98 | 1010.0 |
| 20260501210657 | 77 | 162 | 0.0 | 0.0 | 0.00 | 0.00 | 0.00 | 98 | 1010.0 |
| 20260501210157 | 77 | 154 | 0.0 | 0.0 | 0.00 | 0.00 | 0.00 | 98 | 1010.0 |
| 20260501205658 | 77 | 149 | 0.0 | 0.0 | 0.00 | 0.00 | 0.00 | 98 | 1010.0 |
| 20260501205157 | 77 | 152 | 0.0 | 0.0 | 0.00 | 0.00 | 0.00 | 98 | 1010.0 |
| 20260501204657 | 77 | 163 | 0.0 | 0.0 | 0.00 | 0.00 | 0.00 | 97 | 1010.0 |
| 20260501204157 | 77 | 160 | 0.0 | 0.0 | 0.00 | 0.00 | 0.00 | 97 | 1010.0 |
| 20260501203657 | 77 | 147 | 0.0 | 0.0 | 0.00 | 0.00 | 0.00 | 97 | 1010.0 |
| 20260501203158 | 77 | 171 | 0.0 | 0.0 | 0.00 | 0.00 | 0.00 | 97 | 1010.0 |
| 20260501202657 | 77 | 167 | 0.0 | 0.0 | 0.00 | 0.00 | 0.00 | 97 | 1010.0 |
| 20260501202157 | 77 | 160 | 0.0 | 0.0 | 0.00 | 0.00 | 0.00 | 97 | 1010.0 |
| 20260501201658 | 77 | 153 | 0.0 | 0.0 | 0.00 | 0.00 | 0.00 | 97 | 1010.0 |
| 20260501201158 | 77 | 149 | 0.0 | 0.0 | 0.00 | 0.00 | 0.00 | 97 | 1010.0 |
| 20260501200657 | 77 | 144 | 1.7 | 1.7 | 0.00 | 0.00 | 0.00 | 96 | 1010.0 |
| 20260501200157 | 77 | 168 | 0.9 | 0.9 | 0.00 | 0.00 | 0.00 | 96 | 1010.0 |
| 20260501195658 | 77 | 210 | 0.9 | 1.7 | 0.00 | 0.00 | 0.00 | 96 | 1010.0 |